[[{"header":{"parameterUnit":"m.s-1","parameterCategory":1,"la1":30.2991,"la2":30.254,"lo1":-89.0895,"lo2":-89.0444,"dy":0.0017,"dx":0.0017,"nx":28,"ny":28,"refTime":"2024-10-11T03:00:00:Z","depth":0,"parameterNumber":2,"parameterNumberName":"U-component_of_WINDS"},"data":[0,0,0,0,0,0,0,0,0,0,0,0,0,0,0,0,0,0,0,0,0,0,0,0,0,0,0,0,0,0,0,0,0,0,0,0,0,0,0,0,0,0,0,0,0,0,0,0,0,0,0,0,0,0,0,0,0,0,-1.6052,-1.6054,0,-1.6266,-1.6269,-1.6271,-1.6295,-1.6293,-1.6291,-1.6289,-1.6515,-1.6523,-1.6531,0,0,0,0,0,0,0,0,0,0,0,0,0,-1.5671,-1.5677,-1.6051,-1.6054,-1.6057,-1.6266,-1.6269,-1.6272,-1.6295,-1.6293,-1.629,-1.6288,-1.6512,-1.6522,-1.6532,0,0,0,0,0,0,0,0,0,0,0,0,0,-1.5856,-1.568,-1.6051,-1.6094,-1.61,-1.6265,-1.6269,-1.6272,-1.6296,-1.6293,-1.6289,-1.6286,-1.6509,-1.6521,-1.6533,-1.6673,0,0,-1.657,-1.6575,0,0,0,0,0,0,0,0,-1.5845,-1.587,-1.6085,-1.6091,-1.6098,-1.625,-1.6217,-1.6407,-1.6297,-1.6222,-1.6289,-1.6285,-1.643,-1.6448,-1.6496,-1.6683,-1.6693,-1.6571,-1.6578,-1.6583,-1.6587,0,0,0,0,0,0,0,-1.5832,-1.5861,-1.6137,-1.6088,-1.6096,-1.6105,-1.6128,-1.6253,-1.6342,-1.6228,-1.623,-1.6255,-1.6433,-1.6484,-1.6502,-1.6696,-1.6571,-1.6581,-1.6589,-1.6594,-1.7013,-1.7016,0,0,0,0,0,0,-1.5811,-1.585,-1.613,-1.6143,-1.5961,-1.6114,-1.614,-1.6205,-1.634,-1.6358,-1.6257,-1.6255,-1.6465,-1.6487,-1.651,-1.6684,-1.6583,-1.6595,-1.6602,-1.7009,-1.7013,-1.7018,0,0,0,0,0,0,-1.5802,-1.5835,-1.6121,-1.5997,-1.6034,-1.6124,-1.6197,-1.6211,-1.6262,-1.6363,-1.6379,-1.6293,-1.6464,-1.6493,-1.6632,-1.6692,-1.66,-1.6611,-1.7004,-1.701,-1.7015,-1.7032,0,0,0,0,0,0,-1.5791,-1.5832,-1.5884,-1.5998,-1.6041,-1.6237,-1.6201,-1.6217,-1.6282,-1.6281,-1.64,-1.6417,-1.6463,-1.6614,-1.6644,-1.6707,-1.6621,-1.6999,-1.7007,-1.7014,-1.7027,-1.7038,-1.7048,0,0,0,0,0,-1.5777,-1.5881,-1.5886,-1.592,-1.6107,-1.6241,-1.6265,-1.6315,-1.6286,-1.6341,-1.6406,-1.6413,-1.6681,-1.6628,-1.6662,-1.673,-1.6996,-1.7005,-1.7013,-1.7022,-1.7036,-1.7047,0,0,0,0,0,0,-1.5773,-1.5897,-1.5904,-1.6047,-1.6133,-1.6244,-1.6314,-1.6327,-1.6425,-1.642,-1.6479,-1.6506,-1.6644,-1.6701,-1.664,-1.6874,-1.6836,-1.6852,-1.6831,-1.6845,-1.6855,-1.6839,-1.6631,0,0,0,0,0,-1.5789,-1.5884,-1.5988,-1.6105,-1.6147,-1.6223,-1.6283,-1.6314,-1.6406,-1.6444,-1.6519,-1.661,-1.6716,-1.6783,-1.6885,-1.7035,-1.7064,-1.7099,-1.7109,-1.7117,-1.7131,-1.7218,-1.7235,-1.7046,-1.7046,-1.7046,0,0,-1.5822,-1.5901,-1.5958,-1.6106,-1.6176,-1.6277,-1.6254,-1.6361,-1.6437,-1.6461,-1.6597,-1.6656,-1.6762,-1.6908,-1.6976,-1.696,-1.7189,-1.7129,-1.7134,-1.7144,-1.7228,-1.7246,-1.7262,-1.7052,-1.7051,-1.705,0,0,-1.5934,-1.6003,-1.6108,-1.6179,-1.6285,-1.6336,-1.6361,-1.6472,-1.6511,-1.6648,-1.6669,-1.6762,-1.694,-1.7016,-1.7078,-1.7222,-1.7233,-1.7254,-1.7308,-1.7392,-1.7407,-1.742,-1.7474,-1.7492,-1.7267,-1.7267,-1.7267,0,-1.5963,-1.6113,-1.6161,-1.6268,-1.6334,-1.6358,-1.6467,-1.6535,-1.667,-1.6716,-1.6695,-1.6922,-1.6995,-1.716,-1.7195,-1.7244,-1.7277,-1.724,-1.74,-1.7414,-1.7428,-1.7479,-1.7499,-1.7269,-1.7268,-1.7268,-1.7268,0,-1.6144,-1.6248,-1.6321,-1.6449,-1.6523,-1.663,-1.6698,-1.6768,-1.6793,-1.6846,-1.6987,-1.7076,-1.7198,-1.7239,-1.7265,-1.741,-1.7397,-1.7387,-1.7351,-1.7447,-1.7496,-1.7516,-1.7271,-1.7271,-1.727,-1.727,0,0,-1.6258,-1.6413,-1.6439,-1.6498,-1.6619,-1.6702,-1.6812,-1.6929,-1.6989,-1.7082,-1.7178,-1.7329,-1.7322,-1.7393,-1.7428,-1.7501,-1.7612,-1.7484,-1.7487,-1.7506,-1.778,-1.7787,-1.7808,-1.762,-1.7624,-1.7627,-1.7772,0,-1.6386,-1.6579,-1.6627,-1.6795,-1.6893,-1.6919,-1.7016,-1.7102,-1.7155,-1.7249,-1.731,-1.7417,-1.7398,-1.7441,-1.7515,-1.7583,-1.7668,-1.7573,-1.7713,-1.7717,-1.7686,-1.7834,-1.7841,-1.7973,-1.7791,-1.7794,-1.7797,0,-1.6559,-1.6655,-1.6831,-1.694,-1.6984,-1.7069,-1.7182,-1.727,-1.737,-1.7404,-1.7483,-1.7512,-1.7631,-1.7588,-1.7754,-1.7689,-1.7749,-1.7792,-1.7798,-1.7814,-1.7763,-1.7855,-1.8016,-1.8036,-1.7828,-1.7825,-1.7823,0,-1.6627,-1.68,-1.6928,-1.6978,-1.7109,-1.7169,-1.7226,-1.7322,-1.7391,-1.749,-1.7536,-1.7648,-1.771,-1.7799,-1.7858,-1.7821,-1.8021,-1.7982,-1.8056,-1.8054,-1.8097,-1.8093,-1.8271,-1.8134,-1.8134,-1.8133,-1.8133,0,-1.6764,-1.6871,-1.696,-1.7039,-1.7162,-1.7218,-1.7338,-1.7397,-1.7483,-1.7576,-1.7606,-1.7694,-1.7766,-1.7865,-1.7913,-1.8045,-1.8073,-1.8106,-1.8118,-1.8104,-1.81,-1.8145,-1.8138,-1.8139,-1.8137,-1.8136,-1.8135,0,-1.686,-1.6924,-1.7066,-1.7178,-1.7209,-1.7294,-1.7392,-1.7471,-1.7526,-1.7644,-1.7675,-1.7763,-1.7881,-1.7949,-1.8097,-1.813,-1.8278,-1.8284,-1.8243,-1.8249,-1.8318,-1.8311,-1.8532,-1.8564,-1.8404,-1.8406,-1.8407,0,-1.6944,-1.7027,-1.7148,-1.7211,-1.7269,-1.7372,-1.7441,-1.7501,-1.7573,-1.7694,-1.776,-1.7879,-1.7977,-1.8165,-1.8244,-1.8359,-1.837,-1.8439,-1.8387,-1.8372,-1.8373,-1.8367,-1.8377,-1.8448,-1.8449,-1.845,-1.8451,0,-1.7086,-1.7114,-1.7211,-1.7322,-1.7403,-1.7493,-1.7583,-1.7634,-1.771,-1.7789,-1.7909,-1.7985,-1.8138,-1.8257,-1.8379,-1.8442,-1.8461,-1.8467,-1.8491,-1.8478,-1.8451,-1.8468,-1.8269,-1.8462,-1.8461,-1.846,-1.8459,-1.8459,-1.718,-1.7256,-1.7353,-1.7462,-1.7535,-1.7619,-1.77,-1.7765,-1.7865,-1.7992,-1.8022,-1.8149,-1.825,-1.8415,-1.8481,-1.8584,-1.8572,-1.8605,-1.8614,-1.8621,-1.8624,-1.8434,-1.8606,-1.8606,-1.8606,-1.8605,-1.8605,0,-1.7325,-1.7389,-1.7489,-1.7612,-1.7699,-1.7707,-1.7808,-1.788,-1.7991,-1.8082,-1.8179,-1.8318,-1.8435,-1.8523,-1.8643,-1.8708,-1.872,-1.8738,-1.8734,-1.8749,-1.8627,-1.8596,-1.8726,-1.8726,-1.8726,-1.8726,-1.8726,-1.8726,-1.741,-1.754,-1.758,-1.7747,-1.7812,-1.7935,-1.7992,-1.807,-1.8144,-1.8297,-1.8393,-1.8449,-1.8541,-1.8668,-1.8777,-1.88,-1.8844,-1.8861,-1.8886,-1.877,-1.8757,-1.8745,-1.8715,-1.8869,-1.8869,-1.8999,-1.9,-1.9001]},{"header":{"parameterUnit":"m.s-1","parameterCategory":1,"la1":30.2991,"la2":30.254,"lo1":-89.0895,"lo2":-89.0444,"dy":0.0017,"dx":0.0017,"nx":28,"ny":28,"refTime":"2024-10-11T03:00:00:Z","depth":0,"parameterNumber":3,"parameterNumberName":"V-component_of_WINDS"},"data":[0,0,0,0,0,0,0,0,0,0,0,0,0,0,0,0,0,0,0,0,0,0,0,0,0,0,0,0,0,0,0,0,0,0,0,0,0,0,0,0,0,0,0,0,0,0,0,0,0,0,0,0,0,0,0,0,0,0,-0.801,-0.801,0,-0.7965,-0.7964,-0.7964,-0.7966,-0.7967,-0.7968,-0.7968,-0.7917,-0.7915,-0.7913,0,0,0,0,0,0,0,0,0,0,0,0,0,-0.8094,-0.8093,-0.801,-0.801,-0.8009,-0.7965,-0.7964,-0.7964,-0.7966,-0.7967,-0.7968,-0.7969,-0.7917,-0.7915,-0.7912,0,0,0,0,0,0,0,0,0,0,0,0,0,-0.8054,-0.8092,-0.8011,-0.8005,-0.8004,-0.7965,-0.7964,-0.7964,-0.7966,-0.7967,-0.7968,-0.7969,-0.7918,-0.7915,-0.7912,-0.7874,0,0,-0.7903,-0.7902,0,0,0,0,0,0,0,0,-0.8056,-0.8051,-0.8007,-0.8006,-0.8005,-0.7972,-0.7975,-0.7933,-0.7966,-0.798,-0.7968,-0.7969,-0.7934,-0.793,-0.7919,-0.7871,-0.7869,-0.7903,-0.7901,-0.79,-0.7899,0,0,0,0,0,0,0,-0.8059,-0.8053,-0.7992,-0.8006,-0.8005,-0.8004,-0.7999,-0.7967,-0.7952,-0.7979,-0.7979,-0.7974,-0.7934,-0.7922,-0.7918,-0.7868,-0.7903,-0.79,-0.7898,-0.7897,-0.7785,-0.7784,0,0,0,0,0,0,-0.8064,-0.8055,-0.7994,-0.7991,-0.8034,-0.8001,-0.7996,-0.7982,-0.7952,-0.7949,-0.7973,-0.7974,-0.7926,-0.7921,-0.7916,-0.7868,-0.79,-0.7897,-0.7895,-0.7787,-0.7785,-0.7784,0,0,0,0,0,0,-0.8066,-0.8058,-0.7996,-0.8023,-0.8015,-0.7999,-0.7982,-0.798,-0.7969,-0.7948,-0.7945,-0.7964,-0.7927,-0.792,-0.7884,-0.7867,-0.7895,-0.7893,-0.7788,-0.7786,-0.7785,-0.7773,0,0,0,0,0,0,-0.8068,-0.8059,-0.8046,-0.8023,-0.8014,-0.7966,-0.7981,-0.7979,-0.7964,-0.7965,-0.7939,-0.7935,-0.7927,-0.7889,-0.7881,-0.7863,-0.789,-0.779,-0.7787,-0.7785,-0.7775,-0.7771,-0.7768,0,0,0,0,0,-0.8071,-0.8043,-0.8045,-0.8037,-0.7997,-0.7965,-0.796,-0.7953,-0.7963,-0.7948,-0.7935,-0.7936,-0.787,-0.7885,-0.7877,-0.7857,-0.7791,-0.7788,-0.7785,-0.7777,-0.7772,-0.7768,0,0,0,0,0,0,-0.8063,-0.804,-0.8042,-0.8006,-0.7988,-0.7966,-0.7947,-0.7948,-0.7925,-0.7927,-0.7917,-0.7911,-0.7875,-0.7863,-0.788,-0.7818,-0.7831,-0.7827,-0.7828,-0.7823,-0.782,-0.7823,-0.7888,0,0,0,0,0,-0.8057,-0.8035,-0.8016,-0.7986,-0.7977,-0.7964,-0.795,-0.7946,-0.7926,-0.7918,-0.7902,-0.7881,-0.7855,-0.7838,-0.7814,-0.7773,-0.7767,-0.7756,-0.7752,-0.775,-0.7746,-0.7722,-0.7717,-0.7775,-0.7775,-0.7775,0,0,-0.8044,-0.8029,-0.8016,-0.7984,-0.7969,-0.7945,-0.7957,-0.7931,-0.7913,-0.7913,-0.7879,-0.7866,-0.7842,-0.7804,-0.7786,-0.7792,-0.7728,-0.7746,-0.7744,-0.7742,-0.7719,-0.7714,-0.7709,-0.7774,-0.7774,-0.7774,0,0,-0.8009,-0.7996,-0.7969,-0.7955,-0.7933,-0.7924,-0.7918,-0.7896,-0.7888,-0.7854,-0.7853,-0.783,-0.7787,-0.7769,-0.7755,-0.7712,-0.7712,-0.7704,-0.7686,-0.7663,-0.7659,-0.7655,-0.7639,-0.7633,-0.7701,-0.7701,-0.7701,0,-0.7995,-0.7961,-0.7955,-0.7929,-0.7915,-0.7916,-0.7888,-0.7873,-0.7844,-0.7833,-0.7841,-0.7786,-0.7769,-0.7727,-0.7717,-0.7705,-0.7696,-0.7707,-0.766,-0.7656,-0.7652,-0.7637,-0.7631,-0.77,-0.77,-0.77,-0.77,0,-0.7945,-0.7921,-0.7902,-0.7875,-0.7858,-0.7832,-0.7821,-0.7804,-0.7801,-0.7791,-0.7755,-0.7736,-0.7707,-0.7697,-0.7693,-0.7653,-0.7657,-0.7663,-0.7676,-0.7646,-0.7631,-0.7625,-0.7699,-0.7699,-0.7699,-0.7699,0,0,-0.7903,-0.7874,-0.7867,-0.7855,-0.783,-0.7811,-0.7783,-0.7757,-0.7742,-0.7722,-0.7697,-0.766,-0.7665,-0.7649,-0.7643,-0.7623,-0.759,-0.7631,-0.763,-0.7623,-0.7543,-0.754,-0.7533,-0.759,-0.7589,-0.7588,-0.7545,0,-0.7865,-0.7818,-0.7812,-0.777,-0.7747,-0.7747,-0.7723,-0.7705,-0.7694,-0.7672,-0.766,-0.7633,-0.7642,-0.7632,-0.7613,-0.7598,-0.7574,-0.7601,-0.7566,-0.7565,-0.7572,-0.7526,-0.7521,-0.7482,-0.754,-0.7539,-0.7538,0,-0.7814,-0.7794,-0.775,-0.7729,-0.7719,-0.7698,-0.7672,-0.7651,-0.763,-0.7624,-0.7605,-0.7602,-0.7572,-0.7586,-0.7544,-0.7563,-0.7547,-0.7538,-0.7536,-0.7532,-0.7549,-0.752,-0.7469,-0.7463,-0.7529,-0.753,-0.753,0,-0.7787,-0.7749,-0.7718,-0.7707,-0.7681,-0.7666,-0.7655,-0.7634,-0.7619,-0.7596,-0.7585,-0.7559,-0.7544,-0.7522,-0.7511,-0.7523,-0.7469,-0.7483,-0.7462,-0.7462,-0.745,-0.7451,-0.7396,-0.7441,-0.7441,-0.7441,-0.7441,0,-0.7745,-0.7718,-0.7705,-0.7686,-0.7655,-0.7648,-0.7617,-0.7605,-0.7587,-0.7564,-0.7562,-0.754,-0.7527,-0.7503,-0.7494,-0.7459,-0.7452,-0.7445,-0.7443,-0.7445,-0.7446,-0.7435,-0.7437,-0.744,-0.744,-0.744,-0.7441,0,-0.771,-0.7701,-0.7666,-0.7645,-0.7639,-0.7617,-0.7599,-0.7579,-0.7569,-0.754,-0.7532,-0.7516,-0.7487,-0.7474,-0.7438,-0.7432,-0.7392,-0.7392,-0.74,-0.7399,-0.7379,-0.7381,-0.7315,-0.7305,-0.7357,-0.7356,-0.7356,0,-0.7684,-0.7663,-0.764,-0.7626,-0.7614,-0.759,-0.7575,-0.7566,-0.7549,-0.7523,-0.7506,-0.7478,-0.7455,-0.7408,-0.7392,-0.7364,-0.7363,-0.7342,-0.7359,-0.7361,-0.7362,-0.7363,-0.7361,-0.7338,-0.7338,-0.7337,-0.7337,0,-0.7638,-0.7634,-0.7613,-0.7589,-0.7571,-0.7551,-0.7532,-0.752,-0.7508,-0.7489,-0.746,-0.7442,-0.7406,-0.7378,-0.7349,-0.7335,-0.7333,-0.7332,-0.7326,-0.7328,-0.7333,-0.7329,-0.7391,-0.7333,-0.7334,-0.7334,-0.7334,-0.7334,-0.7606,-0.7588,-0.7569,-0.7544,-0.7529,-0.7512,-0.7492,-0.748,-0.7457,-0.7428,-0.7424,-0.7393,-0.737,-0.7332,-0.7317,-0.7291,-0.7296,-0.7287,-0.7284,-0.7282,-0.7281,-0.7337,-0.7286,-0.7286,-0.7286,-0.7286,-0.7286,0,-0.756,-0.7548,-0.7526,-0.75,-0.748,-0.7482,-0.7461,-0.7444,-0.7418,-0.7398,-0.7376,-0.7342,-0.7314,-0.7296,-0.7267,-0.725,-0.7249,-0.7243,-0.7244,-0.724,-0.7278,-0.7287,-0.7244,-0.7244,-0.7244,-0.7245,-0.7245,-0.7245,-0.7534,-0.7503,-0.7496,-0.7457,-0.7445,-0.7416,-0.7404,-0.7387,-0.7371,-0.7334,-0.7312,-0.7301,-0.7281,-0.725,-0.7224,-0.7219,-0.7209,-0.7202,-0.7197,-0.7233,-0.7238,-0.7242,-0.725,-0.72,-0.72,-0.7161,-0.7161,-0.7161]}]]